• In Netherlands
  • List of Countries
  • For 7 days
  • Water Temperature
  • Satellite Maps
  • Weather Map
  • Weather Widgets
  • user-avatar
    Login

    Hourly Weather Gomel

    Today, 30 March, Thursday

    Time Temperature Precipitation Wind Pressure Humidity
    00:00 +4°C° 0 mm 1 mps 746 mmHg 86%
    01:00 +3°C° 0 mm 2 mps 747 mmHg 86%
    02:00 +3°C° 0 mm 2 mps 747 mmHg 86%
    03:00 +1°C° 0 mm 3 mps 748 mmHg 86%
    04:00 -1°C° 0 mm 4 mps 748 mmHg 87%
    05:00 -1°C° 0 mm 4 mps 749 mmHg 87%
    06:00 -1°C° 0 mm 4 mps 750 mmHg 79%
    07:00 -1°C° 0 mm 5 mps 751 mmHg 72%
    08:00 -1°C° 0 mm 5 mps 753 mmHg 64%
    09:00 0°C° 0 mm 5 mps 753 mmHg 58%
    10:00 +1°C° 0 mm 5 mps 754 mmHg 52%
    11:00 +1°C° 0 mm 5 mps 755 mmHg 45%
    12:00 +2°C° 0 mm 5 mps 756 mmHg 43%
    13:00 +3°C° 0 mm 4 mps 756 mmHg 41%
    14:00 +4°C° 0 mm 4 mps 757 mmHg 39%
    15:00 +4°C° 0 mm 3 mps 757 mmHg 41%
    16:00 +3°C° 0 mm 3 mps 757 mmHg 44%
    17:00 +4°C° 0 mm 2 mps 758 mmHg 46%
    18:00 +4°C° 0 mm 1 mps 758 mmHg 51%
    19:00 +2°C° 0 mm 1 mps 759 mmHg 55%
    20:00 -1°C° 0 mm 0 mps 759 mmHg 60%
    21:00 +1°C° 0 mm 1 mps 759 mmHg 60%
    22:00 +1°C° 0 mm 1 mps 760 mmHg 59%
    23:00 -1°C° 0 mm 2 mps 760 mmHg 59%

    Tomorrow, 31 March, Friday

    Time Temperature Precipitation Wind Pressure Humidity
    00:00 -1°C° 0 mm 2 mps 760 mmHg 61%
    01:00 -1°C° 0 mm 2 mps 760 mmHg 62%
    02:00 -1°C° 0 mm 2 mps 760 mmHg 63%
    03:00 -2°C° 0 mm 3 mps 760 mmHg 64%
    04:00 -2°C° 0 mm 3 mps 760 mmHg 64%
    05:00 -2°C° 0 mm 3 mps 759 mmHg 65%
    06:00 -2°C° 0 mm 4 mps 759 mmHg 62%
    07:00 -1°C° 0 mm 4 mps 758 mmHg 59%
    08:00 0°C° 0 mm 5 mps 758 mmHg 56%
    09:00 +1°C° 0.1 mm 5 mps 757 mmHg 58%
    10:00 +2°C° 0.1 mm 6 mps 756 mmHg 61%
    11:00 +2°C° 0.1 mm 6 mps 755 mmHg 64%
    12:00 +2°C° 1.1 mm 6 mps 754 mmHg 71%
    13:00 +2°C° 1.1 mm 6 mps 753 mmHg 78%
    14:00 +2°C° 1.1 mm 6 mps 752 mmHg 85%
    15:00 +3°C° 1.4 mm 6 mps 752 mmHg 89%
    16:00 +3°C° 1.4 mm 5 mps 751 mmHg 92%
    17:00 +5°C° 1.4 mm 5 mps 750 mmHg 95%
    18:00 +5°C° 0.4 mm 5 mps 750 mmHg 96%
    19:00 +6°C° 0.4 mm 4 mps 750 mmHg 97%
    20:00 +6°C° 0.4 mm 4 mps 751 mmHg 98%
    21:00 +7°C° 0.1 mm 3 mps 751 mmHg 98%
    22:00 +7°C° 0.1 mm 3 mps 751 mmHg 98%
    23:00 +7°C° 0.1 mm 2 mps 751 mmHg 99%

    Day after tomorrow, 1 April, Saturday

    Time Temperature Precipitation Wind Pressure Humidity
    00:00 +6°C° 0 mm 2 mps 752 mmHg 99%
    01:00 +6°C° 0 mm 2 mps 752 mmHg 99%
    02:00 +5°C° 0 mm 2 mps 752 mmHg 99%
    03:00 +5°C° 0 mm 2 mps 753 mmHg 99%
    04:00 +6°C° 0 mm 1 mps 753 mmHg 98%
    05:00 +6°C° 0 mm 1 mps 753 mmHg 98%
    06:00 +6°C° 0 mm 1 mps 754 mmHg 95%
    07:00 +7°C° 0 mm 1 mps 754 mmHg 93%
    08:00 +6°C° 0 mm 0 mps 754 mmHg 90%
    09:00 +7°C° 0 mm 0 mps 755 mmHg 84%
    10:00 +9°C° 0 mm 0 mps 755 mmHg 79%
    11:00 +10°C° 0 mm 0 mps 755 mmHg 73%
    12:00 +10°C° 0 mm 0 mps 755 mmHg 74%
    13:00 +12°C° 0 mm 1 mps 755 mmHg 74%
    14:00 +12°C° 0 mm 1 mps 755 mmHg 75%
    15:00 +12°C° 0 mm 1 mps 755 mmHg 78%
    16:00 +12°C° 0 mm 1 mps 754 mmHg 81%
    17:00 +12°C° 0 mm 1 mps 754 mmHg 84%
    18:00 +11°C° 0 mm 1 mps 754 mmHg 87%
    19:00 +9°C° 0 mm 2 mps 754 mmHg 90%
    20:00 +9°C° 0 mm 2 mps 754 mmHg 94%
    21:00 +8°C° 0 mm 2 mps 754 mmHg 94%
    22:00 +8°C° 0 mm 2 mps 754 mmHg 95%
    23:00 +8°C° 0 mm 3 mps 754 mmHg 96%

    2 April, Sunday

    Time Temperature Precipitation Wind Pressure Humidity
    00:00 +8°C° 0 mm 3 mps 754 mmHg 97%
    01:00 +8°C° 0 mm 3 mps 754 mmHg 97%
    02:00 +7°C° 0 mm 3 mps 754 mmHg 98%
    03:00 +7°C° 0 mm 3 mps 754 mmHg 98%
    04:00 +7°C° 0 mm 3 mps 754 mmHg 98%
    05:00 +7°C° 0 mm 3 mps 754 mmHg 98%
    06:00 +8°C° 0 mm 3 mps 753 mmHg 95%
    07:00 +9°C° 0 mm 3 mps 753 mmHg 91%
    08:00 +10°C° 0 mm 3 mps 753 mmHg 87%
    09:00 +12°C° 0 mm 3 mps 753 mmHg 82%
    10:00 +13°C° 0 mm 3 mps 753 mmHg 76%
    11:00 +15°C° 0 mm 4 mps 753 mmHg 70%
    12:00 +17°C° 0 mm 4 mps 753 mmHg 66%
    13:00 +18°C° 0 mm 4 mps 753 mmHg 62%
    14:00 +18°C° 0 mm 4 mps 752 mmHg 58%
    15:00 +18°C° 0 mm 3 mps 752 mmHg 61%
    16:00 +17°C° 0 mm 3 mps 752 mmHg 65%
    17:00 +16°C° 0 mm 2 mps 751 mmHg 68%
    18:00 +15°C° 0 mm 2 mps 751 mmHg 73%
    19:00 +13°C° 0 mm 2 mps 751 mmHg 78%
    20:00 +12°C° 0 mm 2 mps 751 mmHg 84%
    21:00 +10°C° 0 mm 2 mps 751 mmHg 86%
    22:00 +10°C° 0 mm 2 mps 751 mmHg 88%
    23:00 +9°C° 0 mm 2 mps 751 mmHg 91%

    3 April, Monday

    Time Temperature Precipitation Wind Pressure Humidity
    00:00 +9°C° 0 mm 2 mps 751 mmHg 92%
    01:00 +8°C° 0 mm 2 mps 750 mmHg 93%
    02:00 +8°C° 0 mm 2 mps 750 mmHg 95%
    03:00 +8°C° 0 mm 2 mps 750 mmHg 95%
    04:00 +7°C° 0 mm 2 mps 750 mmHg 96%
    05:00 +7°C° 0 mm 2 mps 749 mmHg 96%
    06:00 +8°C° 0.2 mm 2 mps 749 mmHg 92%
    07:00 +9°C° 0.2 mm 2 mps 749 mmHg 89%
    08:00 +10°C° 0.2 mm 3 mps 749 mmHg 85%
    09:00 +12°C° 0.1 mm 2 mps 749 mmHg 82%
    10:00 +13°C° 0.1 mm 2 mps 749 mmHg 80%
    11:00 +14°C° 0.1 mm 2 mps 749 mmHg 77%
    12:00 +13°C° 0.5 mm 3 mps 748 mmHg 77%
    13:00 +14°C° 0.5 mm 3 mps 748 mmHg 77%
    14:00 +14°C° 0.5 mm 4 mps 748 mmHg 77%
    15:00 +13°C° 1.1 mm 4 mps 748 mmHg 81%
    16:00 +11°C° 1.1 mm 4 mps 748 mmHg 86%
    17:00 +10°C° 1.1 mm 4 mps 748 mmHg 90%
    18:00 +8°C° 0.1 mm 4 mps 749 mmHg 91%
    19:00 +7°C° 0.1 mm 4 mps 749 mmHg 91%
    20:00 +7°C° 0.1 mm 4 mps 749 mmHg 91%
    21:00 +6°C° 0 mm 4 mps 750 mmHg 91%
    22:00 +6°C° 0 mm 4 mps 750 mmHg 91%
    23:00 +5°C° 0 mm 4 mps 751 mmHg 91%

    4 April, Tuesday

    Time Temperature Precipitation Wind Pressure Humidity
    00:00 +5°C° 0 mm 4 mps 751 mmHg 90%
    01:00 +5°C° 0 mm 4 mps 752 mmHg 90%
    02:00 +4°C° 0 mm 4 mps 752 mmHg 89%
    03:00 +4°C° 0 mm 4 mps 753 mmHg 89%
    04:00 +4°C° 0 mm 4 mps 753 mmHg 88%
    05:00 +4°C° 0 mm 4 mps 754 mmHg 87%
    06:00 +4°C° 0 mm 4 mps 754 mmHg 86%
    07:00 +4°C° 0 mm 4 mps 754 mmHg 85%
    08:00 +4°C° 0 mm 4 mps 755 mmHg 84%
    09:00 +4°C° 0.2 mm 4 mps 755 mmHg 83%
    10:00 +4°C° 0.2 mm 4 mps 755 mmHg 82%
    11:00 +4°C° 0.2 mm 4 mps 756 mmHg 81%
    12:00 +4°C° 0.2 mm 4 mps 756 mmHg 81%
    13:00 +5°C° 0.2 mm 3 mps 756 mmHg 81%
    14:00 +5°C° 0.2 mm 3 mps 756 mmHg 82%
    15:00 +5°C° 0.1 mm 3 mps 756 mmHg 83%
    16:00 +6°C° 0.1 mm 2 mps 755 mmHg 84%
    17:00 +6°C° 0.1 mm 2 mps 755 mmHg 85%
    18:00 +5°C° 0 mm 2 mps 755 mmHg 87%
    19:00 +6°C° 0 mm 1 mps 755 mmHg 90%
    20:00 +6°C° 0 mm 1 mps 755 mmHg 92%
    21:00 +6°C° 0 mm 1 mps 755 mmHg 93%
    22:00 +6°C° 0 mm 1 mps 754 mmHg 93%
    23:00 +5°C° 0 mm 0 mps 754 mmHg 94%
    Show more